Terug naar catalogus

COSMOS 2251 DEB

ActiefLEO
NORAD 34854·DEBRIS·🇷🇺 Russia

Gelanceerd Jun 16, 1993 vanaf Plesetsk Cosmodrome

Loading…

Volgende Passages (komende 24 uur)

TLE

VersSource: Space-Track

Epoch: Sep 14, 2026, 22:41 UTC

1 34854U 93036ABY 26257.94535851  .00002238  00000-0  29977-3 0  9999
2 34854  74.0306 336.0827 0063108  15.1399 345.1645 14.78712052759625

Volg COSMOS 2251 DEB in realtime met AllMySat

Download on the App Store